Temperature
21 20 19 20 25 30 31 31 31 31 32 31 30 30 31 31 30 29 24 23 22 21 22 22 22 21 21 21 21 20 20 20 20 20 20 20 19 19 19 19 20 19 19 19 18 18 18 18 18
20 19 20 24 30 32 31 31 31 31 31 30 30 30 30 30 28 25 23 22 22 21 21 22 22 21 21 21 21 21 20 20 20 20 20 20 19 19 19 19 19 19 19 19 18 18 18 18 18
20 20 24 29 32 31 31 32 31 31 30 30 30 30 30 29 26 24 23 22 22 21 21 22 22 21 21 21 21 21 21 20 20 20 20 20 20 20 20 20 19 19 19 19 19 19 19 19 19
21 23 26 31 32 32 31 32 31 31 31 30 30 31 29 25 25 24 23 22 22 21 20 21 21 21 21 21 21 21 21 20 20 20 20 20 20 20 20 20 20 19 19 19 19 19 19 19 19
22 27 31 32 32 32 32 31 31 31 32 31 31 31 28 24 23 23 23 22 22 21 20 20 21 21 20 20 21 20 20 20 20 20 20 20 20 20 20 20 19 19 19 19 19 19 19 19 19
27 30 32 32 32 32 33 32 31 32 31 31 30 31 27 23 23 23 22 22 22 21 20 19 21 20 20 20 20 20 20 20 20 20 20 20 20 20 20 19 19 19 19 18 18 19 19 19 19
28 31 32 32 32 32 33 32 32 32 32 30 30 31 27 24 23 23 22 21 21 21 20 19 19 20 20 20 20 20 20 20 20 20 20 20 20 19 19 19 19 18 18 18 18 18 18 18 19
28 31 32 32 31 32 32 32 31 31 31 29 29 30 28 23 23 22 22 21 21 20 20 19 19 19 19 19 20 20 20 20 20 20 20 20 20 19 19 19 19 18 18 18 18 19 18 18 19
27 30 31 32 31 32 32 32 31 30 30 29 27 27 26 23 22 22 21 21 20 20 20 19 19 19 19 19 19 19 20 20 20 19 19 19 19 19 19 19 18 19 19 18 18 18 18 18 18
29 31 31 31 31 31 31 30 29 30 30 28 26 24 23 22 22 22 22 21 20 20 20 20 20 20 20 19 19 19 19 19 19 18 18 19 18 18 18 18 19 19 19 19 19 18 18 18 17
29 30 31 31 30 30 30 29 27 29 28 25 25 24 22 22 22 22 22 21 21 20 20 20 20 20 20 20 19 19 19 18 18 18 18 18 18 18 18 18 18 18 18 18 18 18 17 17 17
30 30 29 29 29 29 29 28 26 24 22 21 22 23 22 22 22 21 21 21 20 20 20 19 19 19 19 19 19 19 18 18 18 18 18 18 18 18 18 18 18 17 17 17 17 17 17 17 17
29 30 29 28 28 27 26 26 24 21 20 20 20 20 20 20 20 20 19 19 19 19 18 18 18 18 18 18 18 18 18 18 17 18 18 18 18 18 18 18 18 18 17 17 17 17 17 17 17
29 29 28 27 27 26 26 24 23 20 19 18 18 18 18 18 18 18 18 18 17 17 17 17 17 18 18 18 18 18 17 17 17 17 17 17 17 17 18 18 17 17 17 17 17 17 17 17 17
28 29 28 27 27 26 27 24 20 18 18 17 17 16 16 16 16 16 16 17 17 17 17 17 17 17 17 18 17 17 17 17 16 16 16 16 17 17 17 17 17 17 17 17 17 17 17 17 17
30 30 29 26 26 26 27 22 20 18 18 17 17 16 16 15 16 16 16 16 16 16 16 17 17 17 17 17 17 17 17 16 16 16 16 16 16 16 17 17 17 17 17 17 17 17 17 17 17
30 30 29 27 26 27 27 21 19 18 18 17 16 16 16 15 15 16 16 16 16 16 16 16 17 17 17 17 17 16 16 16 16 16 16 15 15 15 16 17 17 17 17 17 17 17 17 17 17
29 29 29 27 26 26 24 20 19 18 18 17 17 17 16 16 15 15 15 16 16 16 16 16 16 17 17 16 16 16 16 15 15 15 15 15 15 15 16 16 16 16 17 17 17 17 16 17 17
29 29 28 26 25 25 23 21 20 19 19 18 18 17 17 17 16 15 16 16 16 16 16 16 17 17 17 16 16 16 16 15 15 15 15 15 15 15 15 16 16 16 16 16 16 16 16 16 16
29 29 28 25 24 25 23 22 21 20 19 19 18 18 18 17 17 16 16 16 16 16 16 16 16 16 16 16 16 16 15 15 15 15 15 15 15 15 15 16 16 16 16 16 16 16 16 17 16
29 29 28 26 24 25 24 23 22 21 20 19 19 18 18 17 17 17 16 16 16 16 16 16 16 16 16 16 15 15 15 15 15 15 15 15 15 15 16 16 16 16 16 16 16 16 16 16 16
28 29 28 26 25 26 25 24 23 22 22 21 20 19 18 18 17 17 17 16 16 16 15 15 15 15 15 15 15 14 14 14 14 14 14 14 14 15 15 15 15 16 16 16 16 15 15 15 16
28 28 28 27 27 26 25 25 23 23 22 22 21 19 19 18 17 17 17 16 16 15 15 15 15 15 15 14 14 14 14 14 14 14 14 13 14 14 14 14 15 15 15 15 15 15 15 15 15
28 27 27 27 28 26 26 25 23 23 22 22 21 19 18 18 17 17 16 16 15 15 15 14 14 14 14 13 13 13 13 13 13 13 13 13 13 13 13 13 14 14 14 14 15 15 15 15 15
28 27 26 26 26 25 25 25 22 22 22 22 21 20 19 18 17 17 16 16 15 15 14 14 13 13 13 13 12 12 12 12 12 12 13 13 13 13 13 13 13 13 13 13 14 14 14 15 15
27 27 26 25 25 25 25 24 22 21 21 20 20 19 19 18 18 17 16 15 15 14 13 13 12 12 12 12 12 11 11 12 12 12 12 12 12 12 12 12 12 12 12 12 13 13 13 14 14
27 27 27 27 26 25 24 23 21 20 21 20 20 19 19 18 17 17 16 15 14 14 13 12 12 11 11 11 11 11 11 11 11 11 11 11 11 11 11 11 11 11 11 12 12 12 12 13 13
27 26 27 26 24 24 25 24 22 21 21 21 20 19 18 17 17 16 15 15 14 13 13 12 11 11 10 10 10 10 10 10 10 10 10 10 10 10 10 11 11 11 11 11 11 11 11 12 12
26 26 26 26 25 24 24 24 23 22 21 21 20 19 18 17 16 15 15 14 13 13 12 11 11 10 10 9 9 9 9 9 9 9 9 9 9 9 9 10 10 10 10 10 10 11 11 11 11
26 25 25 25 24 24 24 24 22 21 20 19 19 18 17 16 15 15 14 13 12 12 11 11 10 10 9 9 8 8 8 8 8 8 8 8 8 8 9 9 9 10 10 10 10 10 10 10 10
Wind_Speed
18 16 9 5 5 3 6 6 5 5 4 3 2 3 5 6 7 4 4 10 15 19 21 22 19 18 16 14 13 12 12 12 13 14 14 14 13 13 13 13 12 12 11 10 9 9 9 9 9
14 11 6 5 5 5 7 7 7 6 5 3 2 3 4 4 5 4 6 12 16 19 20 20 20 17 16 14 13 12 12 12 12 12 13 13 12 12 12 12 12 11 11 10 9 9 9 9 9
11 8 5 5 3 7 7 8 7 5 2 2 2 2 4 5 5 4 9 15 17 17 18 19 20 17 16 14 13 12 12 11 11 12 12 12 12 11 11 11 11 11 11 10 10 9 10 9 9
6 6 5 6 4 7 6 8 7 4 2 2 2 3 5 7 4 7 13 15 17 17 17 20 19 17 15 14 13 12 11 11 11 11 11 12 12 12 12 12 11 11 11 11 10 10 10 11 10
5 5 7 4 3 6 5 6 5 5 5 3 3 4 7 7 9 12 14 14 16 16 15 19 17 16 15 14 13 12 11 11 11 11 11 12 12 12 12 12 12 12 12 12 11 11 11 11 11
4 5 8 5 3 4 6 7 5 6 5 4 3 4 7 8 10 12 13 13 14 14 14 18 16 14 14 13 12 11 11 11 11 11 11 11 11 11 12 12 12 12 12 12 11 11 11 11 12
6 6 7 6 4 3 8 10 8 8 6 6 4 4 8 10 11 13 13 12 12 13 12 14 16 14 13 12 12 12 12 12 12 12 12 12 11 11 11 12 12 12 12 11 11 11 11 12 12
5 6 9 5 4 3 9 10 10 9 7 5 4 4 6 11 14 15 14 13 11 11 11 11 12 13 13 13 13 12 12 13 13 13 13 13 13 13 13 13 13 12 12 12 12 12 12 13 13
4 7 9 5 4 5 10 11 10 5 5 7 8 7 7 16 16 16 15 14 13 11 10 10 11 10 11 11 13 14 14 14 14 15 16 14 14 15 15 17 15 14 14 14 14 15 15 15 16
6 10 7 4 5 8 9 9 11 5 6 9 8 7 9 14 15 16 15 15 15 14 12 11 10 10 10 9 10 11 12 13 14 13 14 15 14 13 14 12 15 16 17 17 18 17 17 17 16
6 8 5 6 6 7 7 5 10 8 7 12 10 3 8 10 11 12 12 13 13 13 12 11 9 8 8 7 7 7 8 9 12 14 14 14 13 13 13 11 13 16 18 17 17 18 17 16 14
7 7 6 7 6 6 5 3 6 13 10 11 8 6 7 8 8 9 9 10 10 10 9 8 6 4 3 4 4 6 7 7 9 12 14 13 10 10 10 9 11 11 12 12 13 12 15 16 16
8 5 3 4 3 2 4 6 8 12 12 11 12 12 10 9 9 9 8 7 7 6 4 2 1 3 4 5 5 6 7 8 10 11 12 14 11 11 11 9 10 12 12 11 11 13 14 14 14
3 3 0 3 5 6 10 9 7 10 11 13 14 14 14 13 12 11 9 8 7 5 4 5 5 5 6 6 6 7 8 9 11 11 13 15 13 11 11 11 11 11 12 12 11 13 13 13 12
5 4 7 6 4 6 6 10 8 8 9 12 13 13 14 13 13 11 10 8 7 6 6 7 7 7 8 8 9 8 8 10 10 10 13 15 15 12 10 9 10 10 11 11 11 12 11 12 12
6 8 6 6 2 3 5 6 8 7 9 10 11 11 11 12 12 10 9 8 7 6 6 7 7 8 9 9 9 8 8 9 9 10 11 13 15 13 9 8 9 8 8 8 10 11 11 11 11
7 4 5 7 6 2 4 7 7 6 8 9 9 9 9 10 10 9 8 7 6 6 6 6 7 8 9 8 7 7 7 7 7 8 8 8 10 11 7 7 6 6 7 8 10 9 9 10 11
1 1 3 6 7 8 10 10 8 7 8 9 8 8 8 9 9 8 7 6 5 5 5 6 7 8 9 8 7 7 6 6 6 6 6 6 6 7 5 5 5 7 7 7 7 8 8 8 9
2 2 3 8 6 7 11 10 8 7 7 8 7 8 8 8 8 6 6 5 5 6 6 7 8 9 8 8 9 9 9 7 7 7 8 8 7 6 5 5 5 7 7 7 8 8 9 8 7
4 4 5 8 6 5 10 10 8 6 7 6 7 7 7 7 6 6 5 5 6 7 7 7 8 9 9 8 8 8 9 8 7 7 7 9 9 7 5 6 6 7 6 7 8 8 7 7 6
5 4 3 7 8 8 10 9 8 7 7 6 6 6 5 5 4 4 4 5 6 7 8 8 9 9 9 9 8 9 8 7 7 8 7 9 10 8 6 6 6 6 7 7 7 8 9 8 7
3 1 3 10 10 6 9 4 8 8 7 6 5 4 4 3 2 3 4 6 7 8 8 9 9 10 9 10 9 11 9 9 8 7 7 8 8 8 7 7 6 6 6 7 8 9 8 9 9
2 1 4 9 8 5 7 5 8 7 6 6 4 3 1 0 2 4 6 7 8 9 10 10 10 11 11 11 10 11 11 10 9 8 8 7 6 6 7 6 6 6 6 7 8 7 9 9 10
2 3 5 8 9 7 4 5 7 5 3 4 4 3 2 3 5 6 8 9 10 10 11 11 11 12 12 12 12 12 13 12 12 11 10 9 7 5 5 5 5 5 6 6 7 8 10 10 10
4 7 6 7 7 3 4 3 5 5 2 2 3 3 4 5 7 9 11 12 12 12 12 13 13 13 14 14 13 13 13 14 14 13 12 10 10 8 6 5 4 5 5 6 7 8 10 11 11
3 7 7 8 6 1 4 2 6 3 1 2 3 4 5 7 9 11 12 13 12 13 13 14 14 15 15 15 14 14 14 13 13 13 13 13 12 11 9 8 7 6 6 6 6 7 9 9 11
2 3 5 7 6 6 2 6 6 4 2 3 4 6 7 8 11 13 14 13 12 14 14 15 15 15 16 16 16 15 15 14 15 16 15 15 13 12 13 11 10 9 8 7 7 7 8 8 10
5 3 4 5 6 6 3 3 3 3 2 3 5 7 8 11 13 14 14 13 13 15 16 16 16 16 17 17 16 15 16 16 16 16 16 16 16 15 15 15 14 13 11 9 8 8 8 8 9
4 3 4 4 5 7 7 3 5 3 4 6 7 8 11 13 15 15 14 14 15 17 17 17 17 17 17 17 16 17 16 17 17 16 16 16 16 16 16 16 16 15 14 13 11 11 9 9 9
6 6 5 5 4 5 8 3 7 2 4 6 9 11 13 15 15 15 15 16 17 18 18 18 18 18 18 17 17 18 17 18 18 18 17 17 17 16 17 17 17 17 17 16 15 14 12 11 11
Wind_Direction
159 165 180 202 236 228 41 39 17 15 19 15 345 295 323 332 338 4 78 138 145 148 146 153 157 160 161 158 153 150 150 153 157 160 161 161 162 162 164 166 167 167 167 162 154 148 145 142 138
162 168 199 233 273 19 47 27 18 18 9 345 291 275 304 1 27 61 114 138 149 149 149 155 154 160 161 159 156 153 153 154 156 160 163 164 164 166 168 171 173 174 174 171 165 160 156 150 147
168 200 246 253 321 16 20 20 11 2 357 321 338 345 0 25 47 82 122 144 150 147 149 147 155 160 161 161 160 159 158 159 162 165 168 171 173 175 177 180 182 184 184 181 178 175 168 161 158
189 221 239 259 354 41 18 9 2 353 38 35 344 63 74 40 45 104 130 146 147 148 152 146 156 159 162 163 164 165 166 168 171 175 178 181 184 186 188 190 192 193 191 188 186 184 176 170 168
236 256 255 260 31 40 25 12 359 352 13 26 14 64 78 64 83 115 134 144 147 152 151 147 156 159 163 166 168 170 173 177 182 185 189 192 194 195 197 197 199 200 199 193 191 189 183 178 177
241 257 274 304 27 30 31 18 352 2 16 30 34 73 84 100 110 123 133 144 147 151 151 143 155 161 164 168 173 176 181 186 191 196 200 203 204 204 205 205 208 208 204 199 196 195 192 189 189
268 277 290 304 326 19 15 1 2 360 23 38 20 72 111 116 121 128 130 138 145 151 150 150 163 166 168 172 178 183 188 193 198 203 206 210 214 215 216 216 217 216 212 209 205 205 205 203 202
269 274 270 277 300 344 5 360 11 6 32 39 14 44 109 137 137 133 132 134 138 147 153 156 169 171 178 181 183 191 197 200 205 209 213 215 219 222 224 225 220 224 223 222 222 222 221 218 214
248 256 266 283 312 331 353 351 3 8 41 53 41 33 94 138 143 140 137 138 143 152 159 163 166 172 184 193 184 195 204 208 211 214 214 219 226 224 219 225 221 226 232 233 232 230 229 227 222
232 257 273 315 316 321 337 349 352 346 30 29 32 62 117 145 154 153 150 150 155 160 165 169 175 179 190 200 198 210 217 216 222 228 219 219 228 234 234 217 216 227 233 237 237 236 234 233 231
233 262 285 286 305 316 317 352 13 358 17 3 353 78 142 152 160 156 154 157 158 163 170 177 182 191 202 208 219 225 232 233 232 234 234 234 235 234 236 232 222 226 231 235 234 232 234 231 232
240 255 272 289 313 313 317 344 35 38 20 4 22 84 117 131 135 140 143 147 154 163 173 185 188 205 245 271 256 247 249 248 247 239 236 237 237 237 236 235 236 233 231 232 238 237 235 233 232
236 258 289 311 322 66 86 81 72 43 34 41 58 72 84 95 104 106 110 121 131 142 153 180 298 313 320 312 300 286 277 273 265 261 250 244 242 240 237 237 238 239 238 234 235 241 240 237 235
255 266 339 54 105 111 101 83 67 44 49 58 62 64 66 69 71 73 71 68 64 52 29 356 334 327 324 313 301 293 287 278 273 265 258 251 247 245 241 239 240 241 240 243 245 246 248 245 241
252 206 134 77 125 150 135 70 52 50 65 68 66 64 61 59 59 57 54 51 47 38 19 359 341 333 325 314 305 298 294 287 280 274 268 258 250 243 238 240 243 245 244 242 243 247 249 248 244
212 199 152 72 73 180 220 82 54 57 74 68 65 65 63 58 57 55 52 49 43 34 21 7 349 339 332 324 312 304 301 298 290 282 274 263 254 244 239 237 246 251 252 246 242 242 244 242 242
195 179 121 97 49 133 116 95 68 64 78 73 66 66 68 66 59 56 54 52 44 34 20 9 1 353 347 339 328 315 306 300 301 295 281 277 268 254 240 238 249 258 254 249 250 243 242 245 243
155 177 117 92 68 99 102 101 81 73 78 79 78 77 75 72 64 62 59 57 51 39 27 16 16 12 359 355 343 332 326 323 323 327 318 304 287 279 269 253 256 258 253 250 247 251 243 247 247
299 259 117 108 111 95 105 102 92 88 89 90 90 88 86 83 83 78 71 63 58 44 32 23 17 16 7 4 354 348 341 335 337 341 348 340 329 308 283 269 263 259 253 250 252 247 240 240 238
233 223 140 123 133 130 123 110 105 97 93 93 99 99 97 94 87 76 66 57 44 34 21 13 10 6 360 1 346 339 336 331 337 342 349 350 343 336 311 292 276 267 266 255 253 246 256 248 227
232 258 180 157 152 155 145 133 133 124 120 116 112 108 99 89 77 63 46 33 23 16 5 359 352 347 349 343 337 340 334 332 347 350 355 353 348 349 346 324 305 286 270 257 249 244 244 252 239
249 320 204 169 181 186 215 185 149 147 143 137 134 131 114 94 60 27 5 359 355 350 346 344 339 335 332 325 331 333 328 330 336 334 342 342 348 352 353 345 332 309 285 268 254 242 246 248 248
8 17 201 195 220 204 210 228 147 165 168 160 158 156 146 343 334 335 335 335 335 335 336 336 334 329 325 319 311 306 308 315 316 320 322 322 333 341 349 348 339 326 305 290 273 261 247 243 247
134 161 177 208 228 228 197 240 153 162 164 166 182 205 253 295 309 317 321 324 326 327 329 331 331 328 324 317 309 300 300 300 302 302 306 305 309 310 323 327 331 319 313 304 286 268 249 246 248
239 255 251 234 230 212 156 220 109 111 123 211 233 244 270 291 303 313 319 323 323 324 326 326 326 323 321 315 309 302 297 294 287 287 291 293 294 292 288 293 295 300 300 296 292 280 269 252 243
315 294 296 300 304 294 176 162 113 113 144 249 264 275 282 296 312 318 320 319 319 321 323 324 324 322 319 315 311 305 298 292 291 292 294 290 286 286 286 271 262 259 265 275 278 280 274 264 252
313 340 335 294 293 290 167 128 138 162 207 253 270 281 291 306 315 319 320 317 319 320 322 322 322 319 318 316 314 303 299 297 296 295 286 283 281 280 275 267 259 253 248 251 259 264 271 274 264
29 354 308 313 319 307 285 208 154 151 311 296 292 298 306 313 316 320 321 318 319 318 319 320 318 317 315 313 313 311 310 304 298 292 291 289 286 281 276 269 263 256 247 238 238 249 253 260 266
28 31 351 336 337 319 319 22 88 20 334 316 309 311 317 319 321 322 321 320 319 319 320 320 319 317 316 316 315 311 307 305 301 295 289 286 283 281 274 267 261 256 251 243 236 242 242 245 255
52 26 358 335 341 318 309 11 109 9 318 304 308 316 320 321 320 320 320 320 320 320 321 319 318 315 315 315 312 309 306 303 300 298 297 293 286 279 273 267 261 256 252 245 239 238 239 240 243
Height
1520 1521 1524 1527 1521 1506 1502 1499 1496 1495 1494 1497 1498 1497 1495 1496 1498 1505 1508 1506 1507 1510 1511 1515 1519 1522 1525 1528 1530 1532 1535 1537 1539 1540 1542 1543 1544 1546 1546 1547 1548 1549 1550 1551 1553 1554 1555 1556 1557
1522 1524 1527 1524 1507 1502 1504 1498 1497 1497 1498 1499 1499 1499 1498 1498 1503 1506 1506 1506 1509 1512 1514 1517 1520 1523 1526 1529 1531 1533 1535 1537 1539 1540 1542 1543 1544 1545 1546 1547 1548 1549 1550 1552 1553 1554 1555 1556 1557
1524 1525 1525 1512 1500 1504 1505 1498 1497 1498 1499 1499 1499 1499 1499 1503 1506 1507 1507 1508 1512 1514 1516 1518 1521 1524 1527 1529 1532 1534 1535 1537 1539 1540 1541 1542 1544 1545 1546 1547 1548 1549 1550 1551 1553 1554 1555 1556 1557
1526 1526 1521 1508 1499 1499 1500 1498 1498 1497 1497 1499 1499 1499 1503 1508 1508 1509 1508 1511 1514 1516 1519 1520 1523 1525 1528 1530 1532 1534 1536 1537 1539 1540 1541 1542 1543 1544 1545 1546 1548 1549 1550 1551 1553 1554 1555 1556 1557
1526 1521 1508 1499 1498 1497 1497 1498 1499 1496 1496 1498 1498 1499 1505 1509 1509 1510 1511 1514 1517 1519 1522 1522 1524 1526 1529 1531 1533 1535 1536 1538 1539 1540 1540 1541 1542 1544 1545 1546 1547 1548 1550 1551 1552 1553 1555 1556 1557
1523 1515 1506 1502 1500 1497 1495 1497 1497 1496 1497 1498 1499 1499 1507 1510 1511 1512 1514 1516 1519 1521 1524 1523 1525 1527 1529 1531 1533 1535 1536 1537 1538 1539 1540 1541 1542 1543 1544 1545 1546 1548 1549 1550 1551 1553 1554 1555 1556
1520 1510 1505 1503 1502 1499 1497 1497 1496 1495 1496 1499 1500 1500 1507 1511 1512 1513 1515 1517 1521 1523 1525 1524 1526 1527 1529 1531 1533 1534 1536 1537 1538 1539 1540 1541 1541 1542 1543 1544 1545 1546 1548 1549 1550 1551 1552 1553 1554
1518 1510 1503 1501 1503 1500 1498 1498 1498 1499 1499 1503 1502 1501 1506 1510 1511 1512 1514 1517 1520 1522 1524 1525 1527 1529 1530 1531 1532 1534 1535 1536 1537 1537 1538 1539 1540 1541 1541 1542 1543 1544 1546 1547 1548 1549 1550 1551 1552
1518 1511 1503 1501 1504 1501 1500 1500 1500 1501 1501 1503 1505 1506 1508 1508 1510 1512 1513 1515 1517 1520 1522 1525 1527 1528 1529 1531 1531 1532 1533 1534 1535 1535 1536 1537 1538 1539 1539 1540 1541 1542 1543 1544 1545 1546 1547 1548 1549
1513 1506 1501 1502 1503 1503 1503 1503 1503 1501 1501 1505 1508 1509 1509 1510 1511 1513 1514 1515 1517 1519 1521 1523 1526 1527 1528 1530 1530 1530 1532 1532 1533 1534 1534 1534 1535 1536 1538 1537 1537 1538 1539 1541 1542 1543 1544 1545 1546
1509 1504 1502 1504 1504 1505 1503 1504 1507 1503 1506 1512 1510 1510 1512 1513 1514 1515 1516 1517 1518 1519 1521 1523 1525 1526 1527 1527 1527 1528 1529 1530 1530 1530 1531 1531 1532 1532 1533 1534 1534 1534 1535 1537 1538 1539 1540 1541 1542
1507 1505 1505 1505 1505 1506 1506 1506 1510 1513 1517 1516 1513 1512 1513 1515 1516 1517 1518 1519 1520 1521 1522 1524 1524 1525 1525 1525 1525 1525 1525 1526 1526 1526 1525 1526 1526 1527 1528 1528 1529 1530 1531 1532 1533 1534 1535 1536 1537
1506 1504 1505 1505 1506 1507 1508 1510 1514 1518 1520 1518 1516 1515 1516 1517 1518 1519 1520 1520 1521 1522 1523 1523 1523 1523 1522 1522 1522 1522 1522 1522 1522 1520 1520 1520 1521 1521 1522 1522 1523 1524 1526 1527 1527 1529 1530 1531 1532
1503 1504 1505 1506 1506 1508 1509 1513 1517 1523 1523 1521 1520 1519 1519 1519 1520 1520 1521 1521 1521 1522 1522 1522 1521 1521 1520 1520 1519 1518 1518 1517 1516 1515 1514 1514 1514 1515 1516 1516 1517 1518 1519 1520 1521 1523 1524 1525 1526
1503 1502 1503 1506 1507 1508 1508 1516 1524 1526 1525 1524 1524 1523 1522 1522 1522 1521 1522 1522 1522 1522 1522 1522 1521 1521 1519 1518 1516 1515 1514 1513 1511 1509 1508 1507 1507 1507 1508 1509 1511 1512 1513 1514 1515 1516 1517 1518 1520
1497 1494 1499 1507 1506 1507 1506 1522 1528 1528 1527 1527 1527 1527 1526 1525 1525 1524 1524 1524 1523 1523 1523 1522 1521 1520 1518 1515 1513 1512 1510 1508 1506 1504 1502 1500 1500 1500 1502 1503 1504 1506 1507 1508 1509 1510 1511 1512 1513
1491 1493 1497 1505 1507 1505 1506 1524 1530 1530 1529 1529 1530 1529 1529 1529 1528 1527 1526 1526 1525 1524 1523 1522 1520 1518 1516 1514 1511 1509 1507 1505 1502 1499 1497 1494 1493 1493 1494 1496 1499 1500 1502 1503 1504 1505 1506 1507 1508
1496 1494 1498 1505 1509 1507 1513 1526 1530 1531 1531 1531 1531 1532 1531 1531 1530 1530 1529 1528 1527 1525 1524 1522 1520 1518 1515 1513 1511 1509 1507 1504 1501 1497 1494 1491 1488 1488 1488 1491 1494 1496 1498 1498 1499 1500 1501 1502 1503
1495 1495 1499 1508 1512 1512 1519 1526 1529 1531 1531 1532 1533 1533 1533 1533 1533 1532 1531 1530 1528 1526 1524 1522 1520 1518 1515 1513 1511 1508 1506 1503 1500 1497 1493 1490 1487 1486 1486 1488 1490 1492 1494 1494 1496 1497 1498 1499 1500
1495 1497 1501 1510 1513 1513 1519 1525 1528 1530 1532 1533 1533 1534 1534 1534 1534 1533 1532 1531 1529 1527 1525 1523 1520 1518 1515 1513 1510 1508 1504 1502 1499 1496 1492 1490 1488 1486 1485 1486 1487 1488 1490 1490 1493 1494 1495 1496 1497
1493 1494 1497 1506 1513 1512 1515 1523 1525 1529 1531 1533 1534 1535 1535 1535 1534 1534 1533 1531 1529 1527 1525 1522 1519 1517 1514 1512 1510 1507 1504 1502 1499 1495 1492 1489 1487 1485 1484 1484 1484 1485 1486 1489 1490 1491 1492 1494 1495
1495 1491 1494 1502 1509 1508 1510 1518 1521 1523 1527 1531 1533 1534 1534 1535 1534 1533 1532 1530 1528 1526 1524 1521 1518 1515 1513 1510 1508 1506 1503 1500 1497 1494 1491 1488 1486 1484 1482 1482 1482 1483 1484 1485 1486 1488 1489 1490 1492
1494 1493 1494 1498 1500 1504 1507 1510 1520 1521 1523 1527 1530 1532 1533 1533 1533 1532 1530 1529 1526 1524 1521 1519 1515 1513 1510 1507 1505 1502 1501 1498 1496 1493 1490 1487 1485 1482 1481 1479 1479 1479 1480 1481 1482 1483 1484 1486 1488
1495 1495 1496 1495 1494 1509 1505 1510 1523 1518 1521 1524 1528 1531 1532 1532 1531 1530 1528 1527 1524 1522 1519 1516 1512 1509 1507 1504 1501 1499 1496 1494 1492 1490 1488 1485 1483 1481 1479 1478 1476 1476 1476 1476 1477 1478 1480 1481 1483
1494 1498 1505 1509 1508 1509 1504 1509 1523 1520 1523 1525 1526 1529 1530 1530 1529 1528 1526 1524 1521 1519 1516 1513 1509 1506 1503 1500 1497 1495 1492 1489 1487 1486 1484 1482 1480 1479 1477 1475 1473 1473 1472 1472 1472 1473 1474 1476 1477
1495 1495 1507 1515 1510 1505 1506 1513 1522 1523 1525 1526 1527 1527 1528 1528 1527 1526 1524 1521 1519 1516 1512 1509 1505 1502 1499 1496 1493 1490 1487 1485 1484 1481 1479 1478 1476 1475 1473 1471 1470 1469 1468 1468 1467 1467 1468 1469 1471
1495 1494 1493 1499 1500 1506 1508 1515 1523 1524 1524 1525 1525 1526 1526 1526 1525 1523 1521 1518 1515 1512 1509 1505 1501 1497 1494 1491 1487 1484 1482 1479 1477 1475 1473 1472 1470 1469 1467 1466 1465 1464 1463 1462 1462 1462 1462 1463 1464
1498 1498 1497 1501 1515 1516 1509 1510 1516 1519 1520 1521 1523 1524 1524 1524 1522 1520 1518 1515 1512 1509 1505 1501 1497 1493 1489 1485 1482 1479 1476 1473 1470 1468 1466 1464 1462 1461 1460 1460 1459 1458 1458 1457 1456 1456 1456 1457 1457
1502 1503 1502 1501 1507 1516 1517 1512 1512 1517 1519 1520 1521 1522 1522 1521 1519 1517 1514 1511 1508 1504 1500 1496 1492 1487 1483 1479 1475 1471 1468 1466 1463 1460 1458 1456 1454 1453 1452 1452 1451 1451 1451 1451 1451 1451 1451 1451 1451
1506 1508 1506 1512 1516 1513 1514 1513 1514 1517 1519 1521 1521 1521 1520 1519 1516 1513 1510 1507 1503 1499 1495 1491 1487 1482 1478 1474 1469 1465 1461 1458 1455 1453 1450 1448 1446 1444 1443 1443 1443 1443 1444 1444 1444 1444 1445 1445 1445